Weather

DAILY 7 DAY TOTAL
onrain

Note: Some stations are located near irrigated fields and may also report irrigation

Alliston Mount Forest Blyth Guelph Grand Bend Strathroy Woodstock Belmont Simcoe Leamington Chatham West Lorne






Woodstock Outdoor FS - Historical Weather Data
Date Max Temp (°C) Min Temp (°C) Avg Temp (°C) Rain (mm) 7Day Rain(mm) Total Rain(mm) Avg RH (%)
7/20/2018 28.0 13.1 21.0 17.0 35.2 211.8 75.1
7/19/2018 26.5 8.3 17.8 0.0 18.2 194.8 68.4
7/18/2018 24.5 10.5 18.0 0.0 18.2 194.8 69.6
7/17/2018 24.2 14.7 20.2 0.0 18.2 194.8 68.0
7/16/2018 30.8 19.1 23.4 16.4 18.2 194.8 85.9
7/15/2018 31.8 18.1 24.9 0.0 1.8 178.4 76.4
7/14/2018 26.3 18.0 21.9 1.8 1.8 178.4 82.8
7/13/2018 29.4 15.1 22.9 0.0 0.0 176.6 58.9
7/12/2018 28.2 10.9 20.7 0.0 0.0 176.6 65.6
7/11/2018 27.6 12.7 20.7 0.0 12.6 176.6 57.6
7/10/2018 27.9 16.8 22.5 0.0 12.6 176.6 57.8
7/9/2018 29.6 11.0 21.2 0.0 12.6 176.6 70.0
7/8/2018 27.0 9.5 19.1 0.0 12.6 176.6 65.9
7/7/2018 25.6 8.0 18.1 0.0 12.6 176.6 58.8
7/6/2018 23.2 12.6 18.5 0.0 12.6 176.6 60.3
7/5/2018 30.6 18.8 24.0 12.6 12.6 176.6 90.0
7/4/2018 32.7 17.6 25.2 0.0 0.0 164.0 67.7
7/3/2018 29.7 13.6 22.5 0.0 11.6 164.0 64.3
7/2/2018 29.5 17.3 25.2 0.0 11.6 164.0 76.4
7/1/2018 30.6 18.8 25.9 0.0 11.6 164.0 74.5
6/30/2018 32.3 18.9 25.3 0.0 57.2 164.0 81.7
6/29/2018 30.2 14.5 23.5 0.0 63.6 164.0 74.5
6/28/2018 26.5 18.2 21.9 0.0 73.0 164.0 80.9
6/27/2018 21.9 14.4 18.6 11.6 73.0 164.0 95.5
6/26/2018 24.5 8.7 17.1 0.0 63.8 152.4 67.6
6/25/2018 23.0 10.9 17.2 0.0 63.8 152.4 67.7
6/24/2018 19.8 15.3 17.3 45.6 67.0 152.4 93.7
6/23/2018 21.9 15.9 17.8 6.4 21.4 106.8 96.9
6/22/2018 21.9 10.9 15.3 9.4 15.0 100.4 73.3
6/21/2018 23.8 12.2 17.9 0.0 5.6 91.0 66.5
6/20/2018 23.0 14.0 17.9 2.4 5.6 91.0 77.9
6/19/2018 26.0 14.7 20.6 0.0 11.8 88.6 70.9
6/18/2018 30.1 19.8 24.5 3.2 11.8 88.6 80.8
6/17/2018 30.7 14.5 23.4 0.0 8.6 85.4 72.6
6/16/2018 25.4 13.0 19.5 0.0 8.6 85.4 62.8
6/15/2018 25.9 7.5 17.6 0.0 9.4 85.4 56.6
6/14/2018 23.5 12.0 18.1 0.0 9.4 85.4 51.1
6/13/2018 26.9 13.8 20.6 8.6 9.4 85.4 73.4
6/12/2018 26.6 7.6 18.6 0.0 0.8 76.8 67.4
6/11/2018 22.5 11.2 17.2 0.0 2.2 76.8 42.6
6/10/2018 22.0 14.9 17.9 0.0 3.2 76.8 54.1
6/9/2018 20.0 11.9 16.6 0.8 7.4 76.8 69.8
6/8/2018 26.7 10.9 18.6 0.0 6.6 76.0 66.1
6/7/2018 23.2 9.3 16.7 0.0 6.6 76.0 71.8
6/6/2018 16.8 7.1 11.3 0.0 8.6 76.0 75.1
6/5/2018 12.8 9.0 10.7 1.4 13.2 76.0 79.4
6/4/2018 18.8 11.6 14.8 1.0 11.8 74.6 75.7
6/3/2018 23.0 12.8 17.6 4.2 10.8 73.6 84.5
6/2/2018 20.1 11.5 15.8 0.0 6.6 69.4 80.4
6/1/2018 26.9 17.1 22.1 0.0 6.6 69.4 79.0
5/31/2018 28.2 19.6 23.5 2.0 6.6 69.4 80.2
5/30/2018 29.3 17.6 23.5 4.6 4.6 67.4 59.5
5/29/2018 28.1 16.9 22.9 0.0 0.0 62.8 63.5
5/28/2018 31.0 17.0 24.6 0.0 6.4 62.8 64.3
5/27/2018 28.6 14.5 21.5 0.0 6.4 62.8 78.1
5/26/2018 27.3 14.5 21.1 0.0 6.6 62.8 62.4
5/25/2018 28.1 11.7 20.4 0.0 11.8 62.8 50.6
5/24/2018 27.1 8.0 18.6 0.0 11.8 62.8 58.4
5/23/2018 24.5 10.2 17.0 0.0 11.8 62.8 67.9
5/22/2018 17.8 11.2 14.1 6.4 11.8 62.8 92.2
5/21/2018 21.2 3.2 13.7 0.0 27.0 56.4 63.6
5/20/2018 19.0 9.1 13.8 0.2 27.0 56.4 85.5
5/19/2018 21.2 8.7 14.8 5.2 26.8 56.2 83.7
5/18/2018 16.0 9.3 12.7 0.0 21.6 51.0 40.3
5/17/2018 26.0 9.8 18.5 0.0 22.4 51.0 63.5
5/16/2018 24.0 7.3 16.0 0.0 28.8 51.0 65.8
5/15/2018 21.0 10.5 16.0 21.6 30.0 51.0 85.7
5/14/2018 22.4 7.2 14.1 0.0 8.4 29.4 87.6
5/13/2018 21.5 5.1 13.0 0.0 8.4 29.4 61.0
5/12/2018 15.8 5.4 9.1 0.0 10.4 29.4 65.1
5/11/2018 10.1 1.3 6.0 0.8 10.4 29.4 69.1
5/10/2018 18.1 5.2 14.6 6.4 23.6 28.6 77.3
5/9/2018 25.3 5.9 16.6 1.2 22.2 22.2 60.9
5/8/2018 22.8 3.2 13.9 0.0 21.0 21.0 53.8
5/7/2018 17.9 7.2 12.3 0.0 21.0 21.0 55.6
5/6/2018 21.9 8.8 13.5 2.0 21.0 21.0 73.0
5/5/2018 21.9 6.0 13.9 0.0 19.0 19.0 69.9
5/4/2018 22.4 5.9 14.8 14.0 19.0 19.0 84.3
5/3/2018 19.7 12.5 16.4 5.0 6.8 5.0 93.7
5/2/2018 25.5 10.4 19.1 0.0 1.8 0.0 52.3
5/1/2018 23.4 5.1 15.3 0.0 9.4 0.0 42.3